Location: Cerda�ola
(41.4919°N, 2.1403°E)
Time: 18:06:22
(UTC+00:00)

Lacrosse 4 Rocket - Visible Passes

Search period start: 14 May 2021 00:00
Search period end: 24 May 2021 00:00
Orbit: 539 x 619 km, 68.0° (Epoch: 13 May)

Date Brightness Start Highest point End Pass type
(mag) Time Alt. Az. Time Alt. Az. Time Alt. Az.
14 May 2.3 01:37:27 43° ESE 01:37:27 43° ESE 01:41:39 10° NE visible
14 May 3.2 03:13:44 14° W 03:16:18 22° NW 03:19:45 10° N visible
15 May 1.6 01:41:50 69° ESE 01:41:51 69° ESE 01:46:16 10° NNE visible
15 May 3.7 03:18:19 10° W 03:20:59 15° NW 03:23:38 10° N visible
16 May 1.4 01:46:11 76° W 01:46:18 76° WNW 01:50:44 10° NNE visible
16 May 3.9 03:24:33 10° WNW 03:25:44 11° NW 03:26:54 10° NNW visible
17 May 4.0 00:14:12 14° E 00:14:12 14° E 00:15:23 10° ENE visible
17 May 2.0 01:50:29 48° WNW 01:50:49 49° WNW 01:55:07 10° NNE visible
18 May 3.5 00:18:28 21° ENE 00:18:28 21° ENE 00:20:31 10° NE visible
18 May 2.6 01:54:45 31° WNW 01:55:22 32° NW 01:59:22 10° N visible
19 May 3.0 00:22:41 30° ENE 00:22:41 30° ENE 00:25:20 10° NE visible
19 May 3.2 01:58:58 21° WNW 01:59:59 23° NW 02:03:30 10° N visible
20 May 2.5 00:26:52 43° NE 00:26:52 43° NE 00:29:58 10° NE visible
20 May 3.7 02:03:08 14° WNW 02:04:40 16° NW 02:07:25 10° N visible
21 May 2.2 00:31:00 53° NNE 00:31:00 53° NNE 00:34:27 10° NNE visible
21 May 4.1 02:07:59 10° WNW 02:09:24 11° NW 02:10:48 10° NNW visible
21 May 4.2 22:58:49 10° ENE 22:58:49 10° ENE 22:58:58 10° ENE visible
22 May 2.3 00:35:06 48° NNW 00:35:06 48° NNW 00:38:50 10° NNE visible
22 May 3.7 23:02:52 16° ENE 23:02:52 16° ENE 23:04:09 10° NE visible
23 May 2.8 00:39:08 34° NW 00:39:08 34° NW 00:43:05 10° N visible
23 May 3.2 23:06:52 25° ENE 23:06:52 25° ENE 23:08:59 10° NE visible
